Weather History for Dalhart, TX

Change the Weather History Date:

Sunday, January 6, 2013

  Actual Average Record
Temperature  
Mean Temperature 31 °F 34 °F  
Max Temperature 44 °F 49 °F 73 °F (2006)
Min Temperature 17 °F 19 °F -5 °F (1974)
Degree Days  
Heating Degree Days 34 31  
Month to date heating degree days 248 186  
Since 1 July heating degree days 1916 2129  
Cooling Degree Days 0 0  
Month to date cooling degree days 0 0  
Year to date cooling degree days 0 0  
Moisture  
Dew Point 19 °F    
Average Humidity 61    
Maximum Humidity 77    
Minimum Humidity 45    
Precipitation  
Precipitation 0.00 in 0.02 in 0.21 in (1988)
Month to date precipitation 0.00 0.09  
Year to date precipitation 0.00 0.09  
Snow  
Snow 0.00 in 0.20 in 2.40 in (1988)
Month to date snowfall 0.0 0.8  
Since 1 July snowfall 4.0 7.0  
Snow Depth T in    
Sea Level Pressure  
Sea Level Pressure 30.34 in    
Wind  
Wind Speed 12 mph (SW)    
Max Wind Speed 25 mph    
Max Gust Speed 30 mph    
Visibility 10 miles    
Events      
T = Trace of Precipitation, MM = Missing Value Source: NWS Daily Summary

Daily Weather History Graph

Daily Weather History Graph

Search for Another Location

Airport:

Trip Planner

Search our weather history database for the weather conditions in past years. The results will help you decide how hot, cold, wet, or windy it might be!

Date:

Astronomy

Jan. 06, 2013 Rise Set
Actual Time 8:01 AM CST 5:51 PM CST
Civil Twilight 7:33 AM CST 6:19 PM CST
Nautical Twilight 7:01 AM CST 6:51 PM CST
Astronomical Twilight 6:30 AM CST 7:22 PM CST
Moon 2:22 AM CST (1/6) 1:16 PM CST (1/6)
Length of Visible Light 10h 46m
Length of Day
9h 49m
Waning Crescent, 33% of the Moon is Illuminated
Jan 6
Waning Crescent
Jan 11
New
Jan 18
First Quarter
Jan 26
Full
Feb 3
Last Quarter

Hourly Weather History & Observations

Time (CST) Temp. Windchill Dew Point Humidity Pressure Visibility Wind Dir Wind Speed Gust Speed Precip Events Conditions
12:53 AM 19.9 °F 8.6 °F 12.9 °F 74% 30.43 in 10.0 mi WNW 10.4 mph - N/A   Clear
1:53 AM 19.0 °F 7.5 °F 12.0 °F 74% 30.43 in 10.0 mi WNW 10.4 mph - N/A   Clear
2:53 AM 18.0 °F 7.7 °F 10.9 °F 74% 30.43 in 10.0 mi WNW 8.1 mph - N/A   Clear
3:53 AM 19.4 °F 7.9 °F 10.4 °F 68% 30.38 in 10.0 mi NW 10.4 mph - N/A   Clear
4:53 AM 18.0 °F 6.9 °F 10.9 °F 74% 30.42 in 10.0 mi WNW 9.2 mph - N/A   Clear
5:53 AM 19.4 °F 9.5 °F 10.4 °F 68% 30.35 in 10.0 mi West 8.1 mph - N/A   Clear
6:53 AM 19.9 °F 7.3 °F 10.9 °F 68% 30.42 in 10.0 mi West 12.7 mph - N/A   Clear
7:53 AM 19.0 °F 6.1 °F 10.9 °F 71% 30.44 in 10.0 mi West 12.7 mph - N/A   Clear
8:53 AM 21.0 °F 9.9 °F 12.9 °F 71% 30.45 in 10.0 mi West 10.4 mph - N/A   Clear
9:53 AM 28.0 °F 21.7 °F 18.0 °F 66% 30.46 in 10.0 mi SSW 5.8 mph - N/A   Clear
10:53 AM 36.0 °F 28.0 °F 23.0 °F 59% 30.44 in 10.0 mi SW 11.5 mph - N/A   Clear
11:53 AM 39.0 °F 30.3 °F 24.1 °F 55% 30.41 in 10.0 mi SSW 16.1 mph - N/A   Clear
12:53 PM 42.1 °F 33.9 °F 26.1 °F 53% 30.36 in 10.0 mi SSW 17.3 mph 23.0 mph N/A   Clear
1:53 PM 43.0 °F 34.0 °F 23.0 °F 45% 30.32 in 10.0 mi SW 21.9 mph 28.8 mph N/A   Clear
2:53 PM 43.0 °F 35.1 °F 25.0 °F 49% 30.30 in 10.0 mi SW 17.3 mph - N/A   Clear
3:53 PM 44.1 °F 36.8 °F 26.1 °F 49% 30.27 in 10.0 mi SSW 16.1 mph - N/A   Clear
4:53 PM 43.0 °F 36.8 °F 26.1 °F 51% 30.26 in 10.0 mi SSW 11.5 mph - N/A   Clear
5:53 PM 36.0 °F 28.5 °F 27.0 °F 70% 30.26 in 10.0 mi SSW 10.4 mph - N/A   Clear
6:53 PM 34.0 °F 26.0 °F 24.1 °F 67% 30.27 in 10.0 mi South 10.4 mph - N/A   Clear
7:53 PM 35.1 °F 25.9 °F 23.0 °F 61% 30.27 in 10.0 mi South 13.8 mph - N/A   Clear
8:53 PM 35.1 °F 25.2 °F 23.0 °F 61% 30.26 in 10.0 mi South 16.1 mph - N/A   Clear
9:53 PM 32.0 °F 23.6 °F 23.0 °F 69% 30.24 in 10.0 mi SSW 10.4 mph - N/A   Clear
10:53 PM 30.0 °F 20.5 °F 21.9 °F 72% 30.21 in 10.0 mi SSW 11.5 mph - N/A   Clear
11:53 PM 32.0 °F 22.1 °F 21.9 °F 66% 30.19 in 10.0 mi SSW 13.8 mph - N/A   Clear